Location: Armidale
(30.5016°S, 151.6662°E)
Time: 16:18:01
(UTC+10:00)

BEESAT 3 - Visible Passes

Search period start: 29 July 2021 00:00
Search period end: 08 August 2021 00:00
Orbit: 489 x 506 km, 64.9° (Epoch: 28 July)

Date Brightness Start Highest point End Pass type
(mag) Time Alt. Az. Time Alt. Az. Time Alt. Az.
29 Jul ? 03:59:28 12° E 03:59:28 12° E 03:59:53 10° E visible
29 Jul ? 05:34:08 25° W 05:34:31 25° WNW 05:37:39 10° NNW visible
29 Jul ? 19:12:13 10° NW 19:15:53 43° WSW 19:15:58 43° SW visible
30 Jul ? 05:14:10 24° NW 05:14:10 24° NW 05:16:14 10° N visible
30 Jul ? 18:50:33 10° NW 18:54:16 50° WSW 18:55:58 28° S visible
31 Jul ? 04:54:14 13° N 04:54:14 13° N 04:54:47 10° N visible
31 Jul ? 18:28:53 10° NW 18:32:40 59° WSW 18:35:51 14° SSE visible
01 Aug ? 18:07:15 10° NNW 18:11:03 69° WSW 18:14:54 10° SSE visible
02 Aug ? 17:45:37 10° NNW 17:49:26 81° WSW 17:53:17 10° SSE visible
